Regional Weather Roundup
Issued by NWS

Home | Current Version | Previous Version | Graphics & Text | Print | Product List | Glossary On
Versions: 1 2 3 4 5 6 7 8 9 10 11 12 13 14 15 16 17 18 19 20 21 22 23 24 25 26 27 28 29 30 31 32 33 34 35 36 37 38 39 40 41 42 43 44 45 46 47 48 49 50
000
ASUS43 KIND 070309
RWRIN

WEATHER ROUNDUP FOR INDIANA
NATIONAL WEATHER SERVICE INDIANAPOLIS IN
1000 PM EST SAT FEB 06 2016

NOTE: "FAIR" INDICATES FEW OR NO CLOUDS BELOW 12,000 FEET WITH NO
SIGNIFICANT WEATHER AND/OR OBSTRUCTIONS TO VISIBILITY.

* - STATION DOES NOT REPORT WEATHER SUCH AS PRECIPITATION OR FOG.

+ - STATION NOT QUALITY CONTROLLED BY THE NATIONAL WEATHER SERVICE.
    USE DATA WITH CAUTION...ESPECIALLY DEWPOINT AND RELATIVE
    HUMIDITY OBSERVATIONS.

INZ001>003-010>013-019-020-070400-
NORTHWEST INDIANA

CITY           SKY/WX    TMP DP  RH WIND       PRES   REMARKS
GARY /AIRPORT/ CLEAR     36  28  75 SE6       30.13F
LA PORTE +     PTCLDY    34  31  89 S5        30.14F WCI  30
MICHIGAN CITY+ CLEAR     34  30  86 S6        30.13F WCI  29
MONTICELLO +   CLEAR     31  25  78 CALM      30.16F
RENSSELAER +   CLEAR     32  28  86 S5        30.15F WCI  27
VALPARAISO     CLEAR     33  28  81 S5        30.13F WCI  29

$$

LMZ046-743>745-070400-
SOUTHERN LAKE MICHIGAN

STATION/POSITION TIME  TEMP    WIND        PRES    WAVE
                       AIR SEA DIR/SP/G            HT
                 (UTC) (F)     (DEG/KT/KT) (MB)    (FT)
BURNS HARBOR     0200   36     180/  9/ 11 1021.0F
MICHIGAN CITY    0200   37     150/ 12/ 14   N/A

$$

INZ004-005-014>016-021>024-070400-
NORTH CENTRAL INDIANA

CITY           SKY/WX    TMP DP  RH WIND       PRES   REMARKS
GOSHEN         CLEAR     33  26  75 S6        30.14F WCI  28
LOGANSPORT +   CLEAR     30  25  80 S5        30.17F WCI  25
PERU/GRISSOM   CLEAR     31  27  83 S5        30.15F WCI  27
ROCHESTER +    CLEAR     36  27  69 S5        30.16F
SOUTH BEND     CLEAR     30  25  81 S6        30.14F WCI  24
WARSAW +       PTCLDY    30  27  86 CALM      30.15F

$$

INZ006>009-017-018-025>027-070400-
NORTHEAST INDIANA

CITY           SKY/WX    TMP DP  RH WIND       PRES   REMARKS
AUBURN +       CLEAR     30  25  80 CALM      30.17F
FORT WAYNE     PTCLDY    30  25  81 S6        30.18F WCI  24
HUNTINGTON +   CLEAR     30  24  78 S3        30.17F

$$

INZ028-029-035-036-043>045-051>053-070400-
WEST CENTRAL INDIANA

CITY           SKY/WX    TMP DP  RH WIND       PRES   REMARKS
GREENCASTLE +  CLEAR     36  21  55 S5        30.19F
LAFAYETTE      CLEAR     29  25  85 CALM      30.16F
TERRE HAUTE    CLEAR     34  25  69 S7        30.19F WCI  28

$$

INZ030>032-037>040-046>048-054>057-064-065-070400-
CENTRAL INDIANA

CITY           SKY/WX    TMP DP  RH WIND       PRES   REMARKS
FISHERS *+     CLEAR     34  28  80 S6        30.19F WCI  29
FRANKFORT +    PTCLDY    33  23  65 S3        30.18F
GREENWOOD *+   CLEAR     36  27  69 S6        30.20F
INDIANAPOLIS   CLEAR     35  23  61 S8        30.18F WCI  29
-EAGLE CREEK   CLEAR     36  24  62 S3        30.18F
KOKOMO *+        N/A     32  25  74 S5        30.17F WCI  27
MARION +       CLEAR     32  21  62 S5        30.18F WCI  28
MT COMFORT *+  CLEAR     34  27  75 S6        30.20S WCI  29
SHELBYVILLE    CLEAR     36  25  64 S8        30.20F
ZIONSVILLE +   CLEAR     32  26  78 S7        30.18F WCI  26

$$

INZ033-034-041-042-049-050-058-059-070400-
EAST CENTRAL INDIANA

CITY           SKY/WX    TMP DP  RH WIND       PRES   REMARKS
MUNCIE         CLEAR     36  25  64 S7        30.18F

$$

INZ060-061-067>069-081>083-085>088-070400-
SOUTHWEST INDIANA

CITY           SKY/WX    TMP DP  RH WIND       PRES   REMARKS
EVANSVILLE     PTCLDY    41  26  55 W5        30.26S
HUNTINGBURG *+ CLEAR     39  25  56 S5        30.25S
WASHINGTON +   CLEAR     37  27  69 S9        30.22F

$$

INZ062-063-066-070>080-084-089>092-070400-
SOUTH CENTRAL AND SOUTHEAST INDIANA

CITY           SKY/WX    TMP DP  RH WIND       PRES   REMARKS
BEDFORD +      CLEAR     39  27  60 S5        30.23S
BLOOMINGTON    CLEAR     37  25  61 SW7       30.20F
MADISON *+     CLEAR     32  27  80 CALM      30.25F
NORTH VERNON + CLEAR     32  27  80 CALM      30.23F
SEYMOUR +      PTCLDY    32  25  74 S3        30.23F

$$




USA.gov is the U.S. government's official web portal to all federal, state and local government web resources and services.